Regional Weather Roundup
Issued by NWS

Home | Current Version | Previous Version | Graphics & Text | Print | Product List | Glossary On
Versions: 1 2 3 4 5 6 7 8 9 10 11 12 13 14 15 16 17 18 19 20 21 22 23 24 25 26 27 28 29 30 31 32 33 34 35 36 37 38 39 40 41 42 43 44 45 46 47 48 49 50
000
ASUS45 KABQ 220610
RWRNM
NEW MEXICO REGIONAL WEATHER ROUNDUP
NATIONAL WEATHER SERVICE ALBUQUERQUE NM
1100 PM MST SAT JAN 21 2017

NOTE: "FAIR" MEANS FEW OR NO CLOUDS BELOW 12,000 FEET AGL WITH NO
       SIGNIFICANT WEATHER OR OBSTRUCTIONS TO VISION.

      THIS PRODUCT IS RELEASED AS TWO VERSIONS.  ONE VERSION NEAR
      THE TOP OF THE HOUR CONTAINING PRELIMINARY DATA FROM ALBUQUERQUE
      AND OTHER STATIONS.  A FINAL VERSION WITH ADDITIONAL DATA IS
      ISSUED ABOUT 10 MINUTES AFTER THE HOUR.

NMZ501-503-504-510>518-220700-
NORTHWEST PLATEAU/NORTHCENTRAL MOUNTAINS

CITY           SKY/WX    TMP DP  RH WIND       PRES   REMARKS
FARMINGTON     FAIR      31  27  85 W10       29.91R WCI  22
6HR MIN TEMP:  31; 6HR MAX TEMP:  36; 6HR PCP: TRACE;

LOS ALAMOS     FAIR      32  17  55 NE7       29.77R WCI  26
SANTA FE       CLOUDY    34  23  64 W6        29.79R WCI  29
6HR MIN TEMP:  31; 6HR MAX TEMP:  35; 6HR PCP: TRACE;

TAOS           CLOUDY    28  18  64 SW9       29.77R WCI  20
ANGEL FIRE     LGT SNOW  24  19  81 SW5       29.74R WCI  19

$$
NMZ402-403-502-505>509-220700-
WESTCENTRAL MOUNTAINS/SOUTHWEST MOUNTAINS

CITY           SKY/WX    TMP DP  RH WIND       PRES   REMARKS
GALLUP         FAIR      25  18  74 W13       29.98R WCI  14
6HR MIN TEMP:  24; 6HR MAX TEMP:  31; 6HR PCP: TRACE;

GRANTS         FAIR      30  18  60 W20G33    29.93R WCI  18
SILVER CITY    FAIR      33  27  78 W22       30.02R WCI  20

$$
NMZ407-409-411-412-220700-
SOUTHERN DESERTS

CITY           SKY/WX    TMP DP  RH WIND       PRES   REMARKS
DEMING         FAIR      39  29  67 W24G36    30.01R WCI  28
6HR MIN TEMP:  38; 6HR MAX TEMP:  44;

LAS CRUCES     FAIR      36  27  70 NW8       30.00R WCI  30
HOLLOMAN AFB   FAIR      40  23  49 VRB3      29.95R
ALAMOGORDO     FAIR      37  23  56 N7        29.93R WCI  32
T OR C         FAIR      38  18  44 W22       29.94R WCI  27
6HR MIN TEMP:  38; 6HR MAX TEMP:  43;


$$
NMZ519>523-220700-
CENTRAL VALLEYS/CENTRAL HIGHLANDS

CITY           SKY/WX    TMP DP  RH WIND       PRES   REMARKS
ALBUQUERQUE    CLOUDY    39  22  50 NW9       29.88R WCI  33
6HR MIN TEMP:  38; 6HR MAX TEMP:  40;

DOUBLE EAGLE   MOCLDY    35  20  55 SW3       29.87R
MORIARTY ARPT  MOCLDY    34  20  57 NW13G24   29.80R WCI  25
6HR MIN TEMP:  33; 6HR MAX TEMP:  37;

CLINES CORNERS FAIR      28  21  75 W38G49    29.72R WCI  11
6HR MIN TEMP:  28; 6HR MAX TEMP:  30;

BELEN          FAIR      37  22  54 W15       29.91R WCI  28
6HR MIN TEMP:  36; 6HR MAX TEMP:  40;

SOCORRO        FAIR      38  20  47 N21G30    29.92R WCI  28

$$
NMZ524>526-539-540-220700-
SOUTHCENTRAL MOUNTAINS

CITY           SKY/WX    TMP DP  RH WIND       PRES   REMARKS
RUIDOSO        CLOUDY    32  16  51 W32G51    29.80R WCI  17

$$
NMZ527>531-220700-
NORTHEAST HIGHLANDS/NORTHEAST PLAINS

CITY           SKY/WX    TMP DP  RH WIND       PRES   REMARKS
LAS VEGAS      FAIR      29  14  53 VRB5      29.65R WCI  24
6HR MIN TEMP:  27; 6HR MAX TEMP:  35;

RATON          FAIR      32  20  61 N10       29.63R WCI  24
6HR MIN TEMP:  31; 6HR MAX TEMP:  36;

CLAYTON        FAIR      35  32  88 NW18G25   29.58R WCI  24
6HR MIN TEMP:  34; 6HR MAX TEMP:  38; 6HR PCP: TRACE;


$$
NMZ532>537-220700-
EASTCENTRAL PLAINS

CITY           SKY/WX    TMP DP  RH WIND       PRES   REMARKS
TUCUMCARI      CLOUDY    45  28  51 NW15      29.59R
6HR MIN TEMP:  42; 6HR MAX TEMP:  51;

CANNON AFB     FAIR      40  27  58 NW21G29   29.57R WCI  30
6HR MIN TEMP:  40; 6HR MAX TEMP:  48;

CLOVIS AIRPORT FAIR      39  25  56 NW23G30   29.55R WCI  29

$$
NMZ028-029-538-220700-
SOUTHEAST PLAINS

CITY           SKY/WX    TMP DP  RH WIND       PRES   REMARKS
ROSWELL        FAIR      48  20  32 NW30G40   29.67R
6HR MIN TEMP:  41; 6HR MAX TEMP:  49;

ARTESIA        FAIR      46  23  39 NW30G41   29.71R
CARLSBAD       FAIR      45  26  47 W33G46    29.73R
6HR MIN TEMP:  45; 6HR MAX TEMP:  51; 6HR PCP: TRACE;



$$




USA.gov is the U.S. government's official web portal to all federal, state and local government web resources and services.